Weather in Slatyne

Ukraine / Kharkiv Region     50°12′47″N   36°09′05″E
temp.,
°C
wind,
m/s
gust,
m/s
humid.,
%
clouds,
%
prec.,
mm/h
press.,
hPa
HPBL,
m
8 august, mon
mon800:00+21ne335026 0.0 101630
03:00+19e2249100 0.0 101611
06:00+19ene2247100 0.0 101720
09:00+25e1240100 0.0 1018267
12:00+29ese2231100 0.0 1018725
15:00+31e22275 0.0 10171851
18:00+30e23355 0.0 1017105
21:00+24ne22345 0.0 101711
9 august, tue
tue900:00+21ne224327 0.0 101811
03:00+20ne22455 0.0 101811
06:00+19ne22515 0.0 101812
09:00+26nne224048 0.0 1018257
12:00+31ene22307 0.0 1017896
15:00+33ese232329 0.0 10162941
18:00+31ne233327 0.0 101582
21:00+23n4116030 0.0 1016214
10 august, wed
wed1000:00+20nne487822 0.0 1016136
03:00+18nne46865 0.0 101699
06:00+18nne478845 0.0 1016138
09:00+24nne4553100 0.0 1016411
12:00+29ne4538100 0.0 1015928
15:00+31ne4430100 0.0 10141548
18:00+28nne4741100 0.0 1014129
21:00+25nne71453100 0.0 1015398
11 august, thu
thu1100:00+24ne71556100 0.0 1015514
03:00+22ne71461100 0.0 1015396
06:00+19ne497195 0.0 1016227
09:00+24ene695361 0.0 1017489
12:00+30e573876 0.0 10171366
15:00+31ene683249 0.0 10161560
18:00+30ene6939100 0.0 1016843
21:00+22ene4861100 0.4 1018124
12 august, fri
fri1200:00+23ne7145939 0.0 1018360
03:00+21ne6145755 0.0 1019339
06:00+20ne61260100 0.0 1019267
09:00+24ene7125340 0.0 1020446
12:00+31ene8103588 0.0 10191260
15:00+33e7930100 0.0 10182235
18:00+31ene61035100 0.0 1018779
21:00+27ne7144597 0.0 1018465